Location: Im Fang
(46.6019°N, 7.2397°E)
Time: 17:52:32
(UTC+00:00)

Envisat - Pass Details

Date: 05 March 2021
Orbit: 764 x 766 km, 98.1° (Epoch: 17 April)

Event Time Altitude Azimuth Distance (km) Brightness Sun altitude
Rises 05:23:14 0° 13° (NNE) 3,245 6.4 -7.6°
Reaches altitude 10° 05:25:32 10° 12° (NNE) 2,314 5.6 -7.2°
Maximum altitude 05:30:39 85° 285° (WNW) 775 3.0 -6.4°
Drops below altitude 10° 05:35:43 10° 198° (SSW) 2,296 5.3 -5.5°
Sets 05:38:01 0° 197° (SSW) 3,217 6.1 -5.1°
